Date,TemperatureHighF,TemperatureAvgF,TemperatureLowF,DewpointHighF,DewpointAvgF,DewpointLowF,HumidityHigh,HumidityAvg,HumidityLow,PressureMaxIn,PressureMinIn,WindSpeedMaxMPH,WindSpeedAvgMPH,GustSpeedMaxMPH,PrecipitationSumIn
2013-1-1,17,13,12,15,11,9,91,90,88,32.50,32.50,12,5,16,0.00
2013-1-2,18,13,10,13,9,7,90,85,69,32.50,32.50,12,4,13,0.00
2013-1-3,27,21,15,12,9,7,79,61,42,32.50,32.50,16,12,19,0.00
2013-1-4,28,24,20,24,14,-100,93,70,48,32.50,32.50,15,-4,19,0.00
2013-1-5,29,26,23,24,20,18,93,79,68,32.50,32.50,15,8,20,0.00
2013-1-6,27,25,23,23,19,-100,89,80,69,32.50,32.50,16,-4,23,0.00
2013-1-7,32,26,23,26,22,17,93,82,71,32.50,32.50,24,14,33,0.00
2013-1-8,34,29,26,30,23,18,89,79,69,32.50,32.50,27,14,35,0.00
2013-1-9,35,33,26,32,28,25,96,85,70,32.50,32.50,36,18,42,0.00
2013-1-10,26,20,8,25,18,5,94,92,88,32.50,32.50,11,4,15,0.00
2013-1-11,10,6,5,8,3,-100,89,87,87,32.50,32.50,4,-10,5,0.00
2013-1-12,13,5,1,10,1,-100,90,86,86,32.50,32.50,5,-10,8,0.00
2013-1-13,19,6,3,17,3,0,92,88,87,32.50,32.50,0,0,0,0.00
2013-1-14,13,7,2,11,4,-1,90,88,87,32.50,32.50,12,2,14,0.00
2013-1-15,30,19,13,29,16,-100,95,91,90,32.50,32.50,8,-10,10,0.00
2013-1-16,32,26,21,28,22,18,94,85,63,32.50,32.50,16,6,18,0.02
2013-1-17,36,30,23,19,16,14,77,58,41,32.50,32.50,22,11,24,0.02
2013-1-18,41,34,29,16,8,-100,57,37,25,32.50,32.50,22,-21,30,0.00
2013-1-19,39,22,29,13,-29,-100,41,23,30,32.50,32.50,16,-349,19,0.00
2013-1-20,39,34,30,15,12,9,46,41,35,32.50,32.50,16,7,22,0.00
2013-1-21,42,35,30,15,11,7,48,38,28,32.50,32.50,20,10,24,0.00
2013-1-22,40,33,28,11,5,-4,45,32,15,32.50,32.50,17,8,21,0.00
2013-1-23,39,35,30,30,13,7,83,44,28,32.50,32.50,29,17,36,0.00
2013-1-24,33,28,29,31,15,-100,95,76,67,32.50,32.50,30,-76,35,0.01
2013-1-25,34,31,28,31,23,-100,96,82,73,32.50,32.50,26,-4,34,0.00
2013-1-26,33,27,23,31,18,-100,96,86,85,32.50,32.50,18,-65,23,0.00
2013-1-27,25,22,20,21,17,14,93,83,66,32.50,32.50,14,6,18,0.00
2013-1-28,22,19,17,18,15,13,92,86,73,32.50,32.50,21,10,25,0.00
2013-1-29,21,19,18,19,17,16,92,92,91,32.50,32.50,13,6,18,0.00
2013-1-30,29,23,21,27,10,-100,95,83,89,32.50,32.50,24,-105,32,0.00
2013-1-31,31,30,29,29,27,25,94,87,81,32.50,32.50,26,9,32,0.00
2013-2-1,32,29,27,28,24,21,95,83,68,32.50,32.50,17,9,25,0.01
2013-2-2,35,29,24,23,21,19,83,72,56,32.50,32.50,22,10,23,0.00
2013-2-3,37,31,26,24,21,18,76,67,51,32.50,32.50,23,8,26,0.00
2013-2-4,33,24,29,26,0,-100,82,62,68,32.50,32.50,24,-186,32,0.00
2013-2-5,38,31,28,29,25,18,94,78,57,32.50,32.50,21,10,29,0.00
2013-2-6,28,26,23,27,23,19,94,90,72,32.50,32.50,15,4,19,0.00
2013-2-7,29,26,23,23,19,14,88,74,54,32.50,32.50,21,10,26,0.00
2013-2-8,29,25,22,24,22,20,94,89,76,32.50,32.50,13,6,15,0.00
2013-2-9,22,20,19,20,16,-100,92,85,76,32.50,32.50,14,-3,19,0.00
2013-2-10,25,21,19,23,18,14,93,89,77,32.50,32.50,11,4,16,0.01
2013-2-11,25,19,17,20,8,-100,90,78,78,32.50,32.50,13,-68,19,0.00
2013-2-12,28,15,22,24,-28,-100,92,52,84,32.50,32.50,21,-402,26,0.00
2013-2-13,31,28,25,27,20,-100,93,81,74,32.50,32.50,23,-19,41,0.00
2013-2-14,27,25,24,22,18,-100,85,77,71,32.50,32.50,17,0,23,0.00
2013-2-15,35,26,26,27,9,-100,88,71,71,32.50,32.50,13,-110,17,0.00
2013-2-16,38,30,27,29,18,-100,94,72,65,32.50,32.50,22,-42,27,0.00
2013-2-17,27,23,20,25,19,16,94,87,78,32.50,32.50,20,8,23,0.00
2013-2-18,28,22,19,19,10,-100,93,71,50,32.50,32.50,16,-34,20,0.00
2013-2-19,31,25,23,22,11,-100,90,61,49,32.50,32.50,15,-23,17,0.00
2013-2-20,25,21,19,20,12,-100,92,80,68,32.50,32.50,13,-35,19,0.00
2013-2-21,23,18,14,18,13,9,90,79,65,32.50,32.50,18,9,23,0.00
2013-2-22,28,24,19,24,20,16,92,83,69,32.50,32.50,27,17,34,0.00
2013-2-23,28,21,19,24,15,10,92,76,62,32.50,32.50,22,10,30,0.00
2013-2-24,26,21,18,17,15,13,81,76,66,32.50,32.50,17,6,24,0.00
2013-2-25,27,22,20,23,16,-100,92,78,63,32.50,32.50,21,1,32,0.00
2013-2-26,24,21,19,18,16,13,88,79,72,32.50,32.50,15,6,23,0.00
2013-2-27,30,23,17,18,12,-100,88,67,53,32.50,32.50,23,-11,27,0.00
2013-2-28,31,27,23,30,24,14,95,88,57,32.50,32.50,16,7,19,0.01
2013-3-1,42,35,31,34,32,30,95,86,72,32.50,32.50,16,6,20,0.00
2013-3-2,44,38,33,33,29,26,95,71,50,32.50,32.50,25,10,30,0.06
2013-3-3,33,20,20,32,-6,-100,96,64,61,32.50,32.50,21,-210,32,0.01
2013-3-4,25,16,12,13,-14,-100,90,53,51,32.50,32.50,14,-217,16,0.01
2013-3-5,32,25,17,16,11,-100,76,59,47,32.50,32.50,20,2,27,0.00
2013-3-6,35,30,26,29,23,14,95,76,49,32.50,32.50,19,11,24,0.01
2013-3-7,34,28,24,27,20,-100,95,76,53,32.50,32.50,17,-4,21,0.01
2013-3-8,34,27,21,23,13,-100,84,64,41,32.50,32.50,14,-25,18,0.00
2013-3-9,34,27,24,22,19,17,77,70,56,32.50,32.50,18,9,21,0.01
2013-3-10,37,28,23,26,20,17,93,72,45,32.50,32.50,18,9,25,0.00
2013-3-11,34,28,28,26,12,-100,93,64,40,32.50,32.50,21,-47,30,0.00
2013-3-12,41,31,26,31,21,-100,88,70,49,32.50,32.50,23,-11,28,0.00
2013-3-13,46,41,36,32,26,-100,83,59,38,32.50,32.50,20,-2,26,0.00
2013-3-14,54,45,40,29,27,24,59,49,34,32.50,32.50,22,10,26,0.00
2013-3-15,46,38,35,32,29,26,82,70,46,32.50,32.50,19,9,23,0.00
2013-3-16,36,33,29,28,27,23,94,77,60,32.50,32.50,18,8,22,0.00
2013-3-17,29,22,18,28,17,11,94,82,59,32.50,32.50,21,9,36,0.00
2013-3-18,26,20,18,19,16,11,92,85,55,32.50,32.50,20,10,28,0.00
2013-3-19,33,25,18,19,12,-100,92,65,27,32.50,32.50,17,-2,19,0.00
2013-3-20,43,32,26,35,22,-100,94,71,39,32.50,32.35,35,7,41,0.01
2013-3-21,26,20,18,23,12,-100,93,80,70,32.50,32.50,17,-35,28,0.00
2013-3-22,22,18,16,17,15,12,92,88,77,32.50,32.50,12,4,18,0.02
2013-3-23,21,15,13,19,9,-100,91,86,86,32.50,32.50,9,-39,14,0.03
2013-3-24,27,19,14,19,10,-100,91,72,38,32.50,32.50,8,-8,14,0.02
2013-3-25,30,6,18,18,-74,-100,70,15,48,32.50,32.50,12,-747,14,0.00
2013-3-26,43,34,27,24,20,-100,75,60,44,32.50,32.50,12,-6,19,0.00
2013-3-27,45,37,31,31,25,20,77,63,49,32.50,32.50,14,6,15,0.00
2013-3-28,46,38,34,34,32,30,88,79,65,32.50,32.50,14,7,18,0.00
2013-3-29,43,37,35,35,33,28,95,83,59,32.50,32.50,15,5,15,0.02
2013-3-30,46,39,33,32,28,23,88,67,44,32.50,32.50,16,7,19,0.00
2013-3-31,53,44,37,31,27,24,62,53,40,32.50,32.50,13,5,18,0.00
2013-4-1,54,46,38,30,27,25,59,49,37,32.50,32.50,9,4,13,0.00
2013-4-2,51,45,40,35,31,26,70,57,44,32.50,32.50,15,7,22,0.00
2013-4-3,52,44,39,34,32,27,77,64,41,32.50,32.50,19,8,29,0.00
2013-4-4,52,44,39,38,33,28,84,65,47,32.50,32.42,20,9,23,0.00
2013-4-5,42,31,35,37,8,-100,92,65,62,32.50,32.44,24,-171,28,0.00
2013-4-6,39,34,31,36,31,26,96,89,64,32.50,32.50,22,9,32,0.05
2013-4-7,37,32,29,35,29,25,96,91,74,32.50,32.42,17,7,23,0.03
2013-4-8,30,23,15,26,16,9,93,75,58,32.50,32.50,21,10,27,0.00
2013-4-9,27,17,13,14,9,7,78,69,59,32.50,32.50,10,4,23,0.00
2013-4-10,42,37,32,37,32,25,95,82,70,32.50,32.50,23,13,29,0.04
2013-4-11,34,32,28,32,26,21,95,78,64,32.50,32.50,18,8,23,0.00
2013-4-12,42,33,26,25,19,-100,79,61,39,32.50,32.39,20,-3,24,0.00
2013-4-13,35,27,22,31,22,15,95,83,62,32.50,32.26,30,10,37,0.00
2013-4-14,28,23,18,25,21,15,93,91,86,32.50,32.50,19,7,32,0.04
2013-4-15,21,10,13,14,-35,-100,84,45,61,32.50,32.50,25,-399,30,0.00
2013-4-16,25,18,13,15,9,7,79,68,54,32.50,32.50,23,8,30,0.00
2013-4-17,34,23,14,10,7,1,69,52,30,32.50,32.50,12,4,17,0.00
2013-4-18,38,29,24,23,13,-100,71,57,49,32.50,32.50,19,-26,22,0.00
2013-4-19,39,34,29,33,27,-100,90,80,69,32.50,32.50,21,-2,27,0.00
2013-4-20,41,35,33,31,27,-100,90,75,58,32.50,32.50,19,-2,28,0.00
2013-4-21,37,29,16,30,25,13,92,83,63,32.50,32.50,17,8,24,0.00
2013-4-22,29,21,14,19,14,11,90,77,50,32.50,32.50,13,6,23,0.01
2013-4-23,36,27,20,23,17,14,81,67,48,32.50,32.50,13,7,17,0.00
2013-4-24,48,36,27,25,20,12,79,55,30,32.50,32.50,18,8,22,0.00
2013-4-25,51,44,36,27,23,19,58,45,31,32.50,32.46,15,8,23,0.00
2013-4-26,58,47,39,32,27,25,59,47,33,32.50,32.50,16,8,22,0.00
2013-4-27,53,48,41,33,27,22,70,46,30,32.50,32.44,27,9,35,0.00
2013-4-28,45,40,36,36,32,28,91,73,56,32.50,32.44,25,6,34,0.02
2013-4-29,40,33,26,33,25,11,95,74,31,32.50,32.21,28,13,37,0.00
2013-4-30,30,24,22,22,16,10,92,72,55,32.50,32.50,15,5,20,0.00
2013-5-1,39,29,22,25,20,16,92,72,43,32.50,32.50,13,4,14,0.03
2013-5-2,55,39,28,20,14,-100,64,41,20,32.50,32.50,18,-13,22,0.00
2013-5-3,46,42,37,36,27,14,90,61,28,32.50,32.50,12,5,17,0.00
2013-5-4,47,41,36,34,31,29,82,68,50,32.50,32.50,16,5,18,0.01
2013-5-5,59,48,37,35,31,27,80,56,32,32.50,32.35,17,8,26,0.00
2013-5-6,66,54,47,37,27,-100,55,38,21,32.38,32.10,11,-17,15,0.00
2013-5-7,65,56,48,38,31,23,50,40,26,32.31,32.12,19,6,28,0.00
2013-5-8,66,56,48,37,33,26,54,43,22,32.42,32.28,24,8,30,0.00
2013-5-9,67,57,51,41,36,33,53,45,32,32.43,32.30,13,7,19,0.04
2013-5-10,68,57,51,40,34,-100,59,44,25,32.50,32.40,18,-4,27,0.00
2013-5-11,69,59,49,40,35,33,58,43,29,32.50,32.33,15,8,19,0.00
2013-5-12,73,62,54,44,39,36,57,44,29,32.38,32.13,19,10,30,0.00
2013-5-13,68,54,42,48,43,30,91,67,36,32.31,31.89,29,8,38,0.14
2013-5-14,53,44,37,34,28,-100,81,59,37,32.46,32.31,16,-4,21,0.00
2013-5-15,54,46,40,37,30,21,72,54,41,32.49,32.26,11,5,16,0.00
2013-5-16,49,43,37,39,36,33,95,78,62,32.33,32.23,11,5,15,0.23
2013-5-17,45,42,40,41,37,33,96,85,63,32.37,32.24,12,5,15,0.16
2013-5-18,47,41,39,42,39,36,96,92,76,32.50,32.36,15,6,21,0.08
2013-5-19,46,41,37,39,36,34,90,85,75,32.50,32.50,14,8,19,0.03
2013-5-20,58,47,40,41,36,-100,88,70,45,32.50,32.33,16,-4,20,0.00
2013-5-21,62,52,44,43,38,36,77,60,40,32.34,31.80,18,9,38,0.01
2013-5-22,50,40,30,42,36,29,96,86,65,32.35,31.80,21,12,31,0.23
2013-5-23,46,36,29,31,28,21,96,75,39,32.43,32.33,15,7,19,0.02
2013-5-24,48,38,34,33,30,27,86,71,48,32.42,32.23,19,9,31,0.00
2013-5-25,47,22,33,34,-23,-100,87,44,56,32.41,32.30,11,-409,13,0.00
2013-5-26,56,40,39,42,16,-100,91,58,43,32.37,32.07,15,-142,20,0.03
2013-5-27,54,45,40,42,39,36,96,81,52,32.19,31.99,12,5,17,0.21
2013-5-28,48,42,39,44,40,38,96,91,81,32.06,31.99,10,5,16,0.42
2013-5-29,57,44,38,40,35,-100,92,74,42,32.06,31.80,23,-4,29,0.06
2013-5-30,47,38,36,37,25,-100,93,74,56,32.36,32.05,15,-46,21,0.00
2013-5-31,49,39,36,34,23,-100,82,64,47,32.50,32.36,15,-57,19,0.00
2013-6-1,57,48,39,35,30,26,68,50,33,32.50,32.17,9,5,12,0.00
2013-6-2,51,44,38,44,36,-100,94,77,46,32.17,31.98,14,5,22,0.26
2013-6-3,49,42,38,43,39,36,96,89,74,32.33,32.14,18,6,20,0.11
2013-6-4,55,46,37,39,35,30,95,70,41,32.43,32.32,15,5,19,0.00
2013-6-5,65,54,42,44,36,26,81,54,29,32.34,32.03,14,6,18,0.00
2013-6-6,70,61,54,49,39,28,56,44,32,32.13,31.90,12,5,16,0.00
2013-6-7,66,60,56,48,42,39,62,53,45,31.93,31.77,22,6,27,0.00
2013-6-8,66,56,49,41,30,-100,59,39,29,32.04,31.88,18,-4,27,0.00
2013-6-9,67,30,56,41,-39,-100,49,13,15,31.99,31.73,17,-517,28,0.00
2013-6-10,67,56,48,34,25,-100,47,33,22,31.91,31.67,16,-14,22,0.00
2013-6-11,67,58,53,41,34,26,57,41,27,31.94,31.68,17,7,23,0.00
2013-6-12,58,50,43,44,39,37,83,68,56,32.03,31.94,17,10,26,0.00
2013-6-13,49,42,39,42,38,34,95,88,64,32.24,32.01,21,7,27,0.38
2013-6-14,50,43,38,38,34,31,92,73,52,32.31,32.24,12,5,19,0.02
2013-6-15,65,52,40,39,33,29,77,52,28,32.30,32.01,14,6,16,0.00
2013-6-16,70,60,50,44,34,28,55,38,27,32.08,31.89,16,5,21,0.00
2013-6-17,74,63,56,45,37,-100,61,40,22,31.96,31.70,11,-6,16,0.00
2013-6-18,70,62,55,49,42,34,71,50,33,31.71,31.48,20,9,29,0.00
2013-6-19,55,44,41,47,39,-100,96,89,71,31.88,31.52,21,-12,25,0.66
2013-6-20,56,36,36,45,17,-100,97,71,60,32.18,31.89,23,-137,29,0.13
2013-6-21,55,43,38,42,31,-100,90,71,49,32.20,32.10,15,-37,21,0.00
2013-6-22,56,46,41,41,36,-100,91,73,52,32.15,32.03,15,-14,18,0.00
2013-6-23,62,52,42,43,39,35,79,61,45,32.03,31.65,12,5,16,0.00
2013-6-24,59,54,50,50,44,39,95,71,52,31.64,31.49,15,6,18,0.21
2013-6-25,58,50,45,49,46,43,96,87,59,31.81,31.02,15,6,24,0.10
2013-6-26,56,50,47,50,45,-100,95,84,72,31.07,30.84,14,-5,21,0.01
2013-6-27,73,59,48,55,48,42,94,70,37,30.89,27.90,15,7,19,0.00
2013-6-28,78,66,60,57,40,-100,63,47,38,32.48,28.09,12,-48,16,0.00
2013-6-29,77,69,63,56,51,44,69,54,40,32.22,31.99,23,6,34,0.02
2013-6-30,80,70,62,61,53,48,75,56,34,32.17,32.05,8,4,17,0.00
2013-7-1,85,75,66,62,50,36,63,44,18,32.15,31.96,16,5,19,0.00
2013-7-2,86,75,67,55,47,-100,50,39,29,32.04,31.83,11,-6,15,0.00
2013-7-3,79,72,68,53,47,-100,57,43,31,31.95,31.82,13,-8,20,0.00
2013-7-4,76,66,61,48,43,36,59,44,25,31.95,31.75,15,8,18,0.00
2013-7-5,72,61,56,48,35,-100,51,40,25,31.92,31.74,15,-18,22,0.03
2013-7-6,71,63,52,42,37,33,66,40,25,32.02,31.85,12,6,18,0.00
2013-7-7,74,66,57,46,39,36,50,38,29,31.97,31.79,11,4,14,0.00
2013-7-8,68,63,57,49,40,36,62,43,32,32.14,31.85,14,5,24,0.09
2013-7-9,75,64,55,46,41,30,64,45,24,32.29,32.08,9,4,13,0.00
2013-7-10,83,68,62,43,28,-100,35,26,17,32.11,31.69,17,-47,25,0.01
2013-7-11,71,62,57,43,33,-100,59,38,28,31.87,31.71,18,-41,23,0.00
2013-7-12,70,60,53,45,42,36,62,51,34,31.97,31.83,18,5,23,0.06
2013-7-13,69,44,52,36,-2,-100,46,27,22,32.15,31.95,19,-247,23,0.00
2013-7-14,75,25,66,35,-53,-100,28,8,19,32.20,31.84,11,-643,18,0.00
2013-7-15,79,68,58,38,34,30,43,29,21,31.99,31.80,14,7,19,0.00
2013-7-16,76,63,51,51,44,-100,74,53,24,32.06,31.87,20,-2,27,0.00
2013-7-17,80,68,60,55,51,40,75,56,39,32.06,31.88,18,8,27,0.01
2013-7-18,78,68,60,46,38,29,54,35,17,32.15,32.01,13,7,18,0.00
2013-7-19,79,69,61,37,29,-100,35,24,14,32.10,31.91,16,-5,22,0.00
2013-7-20,80,70,63,38,33,27,33,26,16,32.00,31.75,13,6,17,0.00
2013-7-21,82,70,60,32,27,16,30,21,9,31.87,31.70,15,6,19,0.00
2013-7-22,78,62,62,35,14,-100,29,19,14,31.90,31.78,17,-113,18,0.00
2013-7-23,82,71,58,36,31,28,31,23,15,32.06,31.88,9,4,13,0.00
2013-7-24,83,74,66,38,29,19,28,20,10,31.96,31.79,16,5,21,0.00
2013-7-25,84,72,62,48,37,26,48,30,16,32.00,31.87,14,7,21,0.00
2013-7-26,83,73,66,36,30,13,30,21,8,32.10,31.87,13,5,16,0.00
2013-7-27,76,67,64,34,22,-100,31,20,9,31.95,31.75,17,-26,19,0.00
2013-7-28,74,65,58,33,29,25,35,27,18,31.91,31.73,12,6,17,0.00
2013-7-29,73,60,50,44,27,-100,71,35,11,32.00,31.82,15,-43,21,0.00
2013-7-30,73,64,56,41,33,21,49,31,20,32.08,31.95,10,5,15,0.00
2013-7-31,80,31,61,37,-43,-100,31,10,17,32.08,32.08,16,-560,18,0.00
2013-8-1,66,57,48,53,44,35,94,67,31,32.08,31.90,16,8,26,0.41
2013-8-2,59,51,45,50,45,41,95,81,63,32.17,31.90,15,6,18,0.02
2013-8-3,63,55,47,50,45,43,92,71,50,32.17,32.17,11,5,14,0.00
2013-8-4,72,61,50,46,42,34,79,53,28,32.17,32.17,14,4,17,0.00
2013-8-5,72,63,55,43,38,33,51,40,24,32.17,32.17,18,7,22,0.00
2013-8-6,74,64,56,45,41,39,60,44,29,32.17,31.95,9,5,15,0.00
2013-8-7,79,68,59,42,39,35,51,37,24,31.95,31.89,10,5,16,0.00
2013-8-8,78,68,62,46,38,29,56,35,17,31.92,31.89,22,7,29,0.00
2013-8-9,75,61,55,51,42,-100,74,55,31,31.97,31.78,38,-22,52,0.02
2013-8-10,80,66,54,50,44,35,72,47,23,31.97,31.97,26,6,29,0.00
2013-8-11,76,66,60,45,39,35,49,38,24,31.97,31.97,16,6,21,0.00
2013-8-12,78,67,58,45,40,32,54,38,20,31.97,31.97,18,4,18,0.00
2013-8-13,74,62,57,43,32,-100,57,38,28,31.97,31.97,18,-47,22,0.01
2013-8-14,79,62,57,45,26,-100,55,33,20,31.97,31.97,11,-72,17,0.00
2013-8-15,85,73,62,37,30,19,37,22,10,31.97,31.97,13,6,18,0.00
2013-8-16,81,72,63,46,36,26,47,29,16,31.97,31.97,14,6,21,0.00
2013-8-17,78,68,60,47,44,40,59,44,30,31.97,31.97,17,8,20,0.00
2013-8-18,78,66,58,48,42,34,61,44,24,31.97,31.97,15,8,24,0.00
2013-8-19,78,67,58,42,38,34,53,36,21,31.97,31.92,17,7,26,0.00
2013-8-20,74,64,58,43,37,-100,53,39,23,31.92,31.87,16,-3,24,0.00
2013-8-21,75,64,57,37,30,-100,41,29,15,31.87,31.87,20,-5,23,0.00
2013-8-22,78,68,60,38,28,-100,34,25,20,31.87,31.87,12,-18,15,0.00
2013-8-23,73,63,53,49,43,-100,79,50,32,31.87,31.87,19,-2,32,0.02
2013-8-24,75,65,57,46,42,34,65,46,23,31.87,31.87,21,8,32,0.00
2013-8-25,78,63,55,48,42,40,76,50,27,31.87,31.87,30,11,39,0.51
2013-8-26,73,62,55,49,44,35,77,54,32,31.87,31.87,13,6,18,0.00
2013-8-27,78,66,58,44,39,35,50,38,21,31.87,31.87,20,7,35,0.00
2013-8-28,69,64,57,50,46,42,72,52,45,31.87,31.87,21,8,25,0.00
2013-8-29,80,66,59,51,47,40,68,53,25,31.87,31.87,19,10,31,0.00
2013-8-30,70,60,55,52,42,-100,89,58,39,31.89,31.87,19,-25,21,0.00
2013-8-31,75,63,52,45,42,37,71,48,31,31.89,31.89,10,5,16,0.00
2013-9-1,83,70,57,41,36,28,51,31,15,31.89,31.89,14,6,16,0.00
2013-9-2,74,67,65,45,35,-100,48,33,20,31.89,31.89,14,-15,18,0.00
2013-9-3,69,36,63,53,-18,-100,64,31,46,31.89,31.89,9,-444,14,0.02
2013-9-4,80,58,58,53,30,-100,77,50,27,31.89,31.89,12,-119,15,0.00
2013-9-5,72,61,55,57,46,-100,88,64,40,31.89,31.60,17,-26,37,0.09
2013-11-6,33,30,29,27,24,22,91,79,70,28.60,28.60,9,5,14,0.03
2013-11-7,38,33,29,37,31,26,96,92,80,28.60,28.60,30,14,32,0.21
2013-11-8,31,29,28,30,26,20,96,90,71,30.48,28.60,20,10,24,0.03
2013-11-9,35,30,25,27,24,22,91,80,70,30.59,30.48,12,6,17,0.00
2013-11-10,44,39,32,36,32,26,84,75,68,30.59,30.59,21,10,27,0.00
2013-11-11,48,40,36,36,34,28,94,81,52,30.59,30.59,14,6,16,0.00
2013-11-12,51,42,35,35,29,24,93,61,37,30.59,30.59,20,12,23,0.00
2013-11-13,42,36,32,35,30,25,88,79,65,30.59,30.59,15,8,21,0.00
2013-11-14,35,32,29,26,24,21,80,74,66,30.59,30.59,12,4,16,0.00
2013-11-15,30,28,25,24,21,18,91,76,65,30.59,30.59,21,9,25,0.00
2013-11-16,26,24,22,25,22,20,93,92,89,30.59,30.59,21,6,29,0.00
2013-11-17,27,24,21,24,22,19,93,91,85,30.59,30.59,18,1,22,0.00
2013-11-18,38,31,27,25,15,-100,84,59,49,30.59,30.59,29,-28,34,0.00
2013-11-19,39,35,34,33,31,23,96,84,60,30.59,30.59,27,20,35,0.01
2013-11-20,34,23,14,32,14,-100,96,72,56,30.59,30.59,28,-12,33,0.00
2013-11-21,20,15,11,8,3,-15,73,60,21,30.59,30.59,12,6,15,0.00
2013-11-22,31,21,14,9,6,-1,78,55,33,30.59,0.00,15,6,17,0.01
2013-11-23,32,25,17,15,12,1,80,59,40,0.00,0.00,15,9,16,0.00
2013-11-24,39,32,25,18,16,11,68,53,37,0.00,0.00,15,8,19,0.00
2013-11-25,41,35,31,22,18,15,60,49,44,0.00,0.00,14,6,17,0.00
2013-11-26,43,36,32,24,20,-100,67,55,46,0.00,0.00,18,-10,22,0.00
2013-11-27,42,33,34,24,8,-100,61,47,41,27.80,0.00,8,-112,10,0.00
2013-11-28,41,34,29,23,20,-100,77,59,43,27.80,27.80,13,-3,17,0.00
2013-11-29,42,34,29,27,22,19,81,62,44,27.80,27.80,18,8,23,0.00
2013-11-30,34,32,31,30,29,27,92,86,79,27.80,27.80,14,4,19,0.00
2013-12-1,33,32,31,32,31,28,96,94,88,27.80,27.80,24,14,33,0.01
2013-12-2,33,24,10,32,20,-100,96,92,89,27.80,27.80,0,-21,0,0.00
2013-12-3,8,1,-4,6,-3,-100,89,85,85,27.80,27.80,0,-10,0,0.00
2013-12-4,1,-3,-6,-2,-9,-100,86,83,84,27.80,27.80,0,-21,0,0.00
2013-12-5,3,-3,-7,0,-8,-100,86,83,83,27.80,27.80,0,-22,0,0.00
2013-12-6,-3,-10,-15,-8,-14,-19,83,81,79,0.00,0.00,0,0,0,0.00
2013-12-7,-1,-11,-17,-4,-16,-21,87,81,77,0.00,0.00,0,0,0,0.00
2013-12-8,0,-7,-12,-3,-10,-16,86,84,82,0.00,0.00,0,0,0,0.00
2013-12-9,14,5,-7,11,2,-10,90,87,84,0.00,0.00,0,0,0,0.00
2013-12-10,16,15,14,14,12,11,91,90,90,0.00,0.00,0,0,0,0.00
2013-12-11,22,18,15,18,16,12,92,89,85,0.00,0.00,0,0,0,0.00
2013-12-12,31,25,21,23,20,17,87,79,64,0.00,0.00,0,0,0,0.00
2013-12-13,29,27,24,26,24,21,94,89,77,0.00,0.00,9,2,15,0.00
2013-12-14,37,29,27,29,23,-100,91,82,50,0.00,0.00,17,-12,22,0.00
2013-12-15,38,36,34,28,22,17,74,59,45,0.00,0.00,19,7,26,0.02
2013-12-16,38,34,31,26,18,-100,71,58,49,0.00,0.00,21,-1,27,0.02
2013-12-17,46,38,30,19,17,15,58,44,32,0.00,0.00,24,12,34,0.01
2013-12-18,39,29,24,25,9,-100,92,60,40,0.00,0.00,14,-93,18,0.00
2013-12-19,24,17,14,22,15,11,92,89,84,0.00,0.00,15,7,18,0.00
2013-12-20,21,15,12,19,12,9,92,87,76,0.00,0.00,19,9,25,0.00
2013-12-21,24,21,19,22,19,17,93,92,91,0.00,0.00,16,7,21,0.00
2013-12-22,28,26,24,26,23,-100,94,91,90,0.00,0.00,16,-2,22,0.00
2013-12-23,34,30,26,33,29,23,96,94,87,0.00,0.00,30,15,38,0.00
2013-12-24,27,24,21,23,18,16,89,79,69,0.00,0.00,18,8,25,0.00
2013-12-25,33,25,20,16,10,-100,84,58,29,0.00,0.00,19,-1,24,0.00
2013-12-26,40,35,31,26,22,14,69,59,50,0.00,0.00,21,8,26,0.00
2013-12-27,44,37,33,22,18,-100,64,47,30,0.00,0.00,29,5,35,0.00
2013-12-28,32,23,22,25,6,-100,84,69,68,0.00,0.00,15,-108,23,0.00
2013-12-29,26,23,19,21,17,13,85,77,67,0.00,0.00,21,8,25,0.00
2013-12-30,33,29,26,31,25,20,94,84,78,0.00,0.00,19,10,28,0.00
2013-12-31,35,31,27,31,27,22,95,86,80,0.00,0.00,19,9,23,0.00
2014-1-1,30,27,25,22,20,20,84,77,68,0.00,0.00,17,7,22,0.00
2014-1-2,40,30,24,31,21,17,82,69,57,0.00,0.00,28,13,35,0.00